Theta_e
333 332 331 333 333 331 329 328 328 327 325 324 323 321 320 320 320 319 318 317 317 317 316 316 315 315 314 314 314 313 312 312 312 312 313 312 311 310 309 307 305 302 301 301 301 301 302 302 302 302 303 303 303 302 302 302 301 301 301 300 300 301 302 303 304 303 302 301 301 300 300 300 300 300 300 300 300 300 299 299 299 300 300 300 299
331 331 328 329 329 328 327 327 325 324 322 322 321 320 319 319 319 318 317 317 316 316 316 315 315 314 314 313 312 312 311 311 311 311 311 311 310 308 307 305 302 301 300 300 300 301 301 301 301 301 301 301 300 300 299 299 299 299 299 299 299 299 300 301 301 301 301 300 300 300 299 300 300 300 300 300 299 299 299 299 299 299 299 299 299
329 328 327 327 326 325 325 324 323 322 321 320 319 318 318 318 318 317 317 316 316 315 315 315 314 314 313 312 311 311 311 310 310 310 310 309 308 306 304 302 300 300 300 300 300 300 300 300 300 300 299 299 298 298 298 298 298 298 298 298 298 298 298 299 299 299 300 300 299 299 299 299 299 299 299 299 299 299 299 299 299 299 299 299 299
326 326 325 324 323 322 322 321 321 320 319 318 318 317 317 317 317 316 316 315 315 314 314 314 314 313 312 311 310 310 309 309 309 308 308 307 306 304 302 300 300 300 300 300 300 299 299 299 299 299 298 298 298 298 298 298 298 298 298 298 298 298 298 298 298 298 299 299 299 299 299 299 299 299 299 299 298 298 299 299 298 298 298 298 299
323 323 322 320 319 319 319 319 319 319 318 317 317 317 316 316 315 315 315 314 314 313 313 313 313 312 311 310 309 308 308 308 307 306 306 305 303 301 300 299 300 300 299 299 299 299 299 299 298 298 298 298 299 299 299 299 299 299 299 299 299 298 298 298 298 298 298 298 298 298 298 298 298 298 298 298 298 298 298 298 297 297 298 298 298
320 319 319 318 317 317 318 318 319 318 317 316 316 316 315 315 314 314 313 313 313 312 312 312 312 311 310 309 308 307 307 306 305 304 303 302 300 300 299 299 299 299 299 299 299 299 299 299 299 299 299 299 299 299 299 299 299 299 299 299 299 299 298 298 298 298 298 298 298 298 298 297 297 297 297 297 297 297 297 297 297 297 297 297 297
318 317 317 317 317 316 317 318 317 317 316 315 315 315 314 314 313 313 313 313 312 311 311 311 311 311 309 308 308 307 305 304 302 301 300 300 299 299 299 299 299 299 299 299 299 299 299 299 299 299 299 299 299 299 299 299 299 299 299 299 299 299 298 298 298 297 298 298 298 297 297 297 297 297 297 296 296 296 296 296 296 297 296 296 297
316 316 316 316 316 316 317 317 316 315 315 314 314 313 313 313 312 312 311 311 310 310 310 311 310 309 308 307 307 306 303 301 300 300 299 298 298 298 298 298 298 298 298 298 299 299 299 299 299 299 299 299 299 299 298 299 298 299 299 298 298 298 298 297 297 297 297 298 298 297 297 297 297 296 296 296 296 296 296 296 296 296 296 296 296
316 317 316 316 316 317 316 315 315 314 314 313 313 313 312 312 311 310 309 309 309 310 310 310 309 308 307 306 305 303 301 299 299 298 298 297 297 297 297 298 298 298 298 298 298 298 298 298 298 298 298 298 298 298 298 298 298 298 298 298 297 297 297 297 297 297 297 297 297 297 297 297 297 296 296 296 295 295 295 295 296 296 295 295 295
317 319 317 315 316 315 315 314 314 313 313 312 312 311 310 310 309 308 308 308 309 309 309 309 308 307 306 305 302 300 299 298 298 297 297 297 297 297 297 297 298 298 298 298 298 298 297 297 297 297 297 297 297 297 298 298 298 297 297 297 297 297 297 297 297 297 297 297 297 297 297 297 297 296 296 295 295 295 295 295 295 295 295 295 295
317 317 315 314 314 314 314 314 313 312 312 312 311 310 309 308 308 308 308 309 309 309 309 308 307 306 305 302 300 298 298 297 297 297 297 297 297 297 297 297 297 297 297 297 298 298 298 297 297 297 296 296 297 297 297 298 297 297 297 297 297 297 297 297 297 297 297 297 296 296 296 296 296 296 295 295 295 295 295 295 295 295 295 294 294
315 314 314 313 313 314 313 312 311 311 311 311 310 309 308 307 307 307 308 309 309 308 308 307 306 304 302 299 298 298 297 297 297 297 297 297 297 297 297 297 297 297 297 297 297 297 297 297 297 296 295 296 296 297 297 297 297 297 297 297 297 297 297 296 296 296 296 296 296 296 296 296 295 295 295 295 295 295 295 295 295 294 294 294 294
313 313 313 312 312 313 312 311 311 311 310 309 309 308 307 306 307 307 308 308 308 308 307 306 304 302 299 298 298 297 297 297 297 297 297 297 297 297 297 297 297 297 296 296 296 296 296 296 296 295 295 295 296 296 297 297 297 297 297 297 296 296 296 296 296 296 296 296 296 295 295 295 295 295 295 295 295 295 295 295 294 294 294 294 294
313 312 312 311 312 311 311 311 310 310 309 308 308 307 306 306 306 306 307 308 308 307 306 305 302 299 297 297 297 297 297 297 297 297 297 297 297 297 297 296 296 296 296 296 296 296 296 296 295 294 295 295 296 296 297 297 297 297 297 296 296 295 296 296 296 296 296 296 295 295 295 295 295 295 295 295 295 295 295 295 294 294 294 294 294
312 312 312 311 311 311 310 310 309 308 308 307 307 306 306 305 305 306 307 308 307 306 305 304 301 298 297 297 297 297 297 297 297 297 297 297 297 296 296 296 296 296 296 296 296 296 295 295 295 294 294 295 295 296 296 296 296 296 296 296 295 295 296 296 296 296 296 296 295 295 295 295 295 295 295 295 295 295 295 295 294 294 294 295 295
312 311 311 311 310 310 310 309 307 307 307 307 306 306 305 305 305 305 306 307 307 305 304 302 300 298 297 297 297 297 297 296 296 297 297 297 297 297 296 296 296 296 296 296 296 296 295 295 295 294 294 294 295 295 295 296 296 296 296 296 295 295 296 297 297 297 296 296 296 296 295 295 295 295 295 295 294 294 295 295 294 294 295 295 295
312 311 310 310 309 309 309 308 307 306 306 306 306 305 305 305 304 305 306 306 306 304 303 302 301 299 299 299 299 298 298 297 296 296 297 297 297 297 296 296 296 296 296 296 296 295 295 295 295 295 294 294 294 294 295 295 295 296 296 296 295 295 296 297 297 297 297 297 296 296 296 296 296 296 295 295 295 294 294 294 294 294 294 295 295
311 311 310 310 309 309 309 308 307 306 306 306 306 304 304 303 304 304 305 306 306 304 302 301 301 300 300 300 300 300 299 297 296 296 297 297 297 297 297 296 296 296 296 296 296 295 295 295 295 295 295 294 294 294 294 294 295 295 295 296 295 295 295 296 297 297 297 297 297 297 296 296 296 296 296 296 295 294 294 294 294 294 294 294 295
311 311 310 309 308 308 308 308 307 306 306 306 305 304 302 302 303 303 304 306 306 305 303 301 301 301 301 301 301 300 299 297 296 296 297 296 297 296 296 296 296 296 296 296 295 295 295 294 295 295 295 294 294 293 294 294 294 294 295 295 295 295 295 295 296 296 297 297 297 297 296 296 296 296 296 296 296 295 294 294 294 294 294 294 294
310 310 310 309 308 308 309 308 307 307 306 306 304 303 301 301 302 302 303 304 305 305 304 303 302 302 302 302 302 301 300 297 296 296 296 296 297 297 296 296 296 296 296 296 295 295 295 294 294 294 294 294 294 293 293 293 294 294 294 295 295 295 295 295 295 296 296 296 297 296 296 296 296 296 296 296 296 295 295 295 294 294 294 294 294
310 310 310 308 308 308 309 308 308 307 307 305 303 301 300 300 301 302 303 303 304 304 304 304 303 303 302 302 302 302 301 298 296 296 296 296 297 297 296 296 296 296 296 295 295 295 295 295 294 294 294 294 294 293 293 293 293 293 294 294 294 294 294 294 295 295 296 296 296 296 296 296 295 296 296 295 295 295 295 295 295 294 294 293 293
310 310 309 308 307 308 308 308 308 307 306 303 301 299 299 300 301 302 302 303 303 303 303 303 302 301 301 301 301 302 301 299 297 296 296 296 297 297 296 296 296 296 296 295 295 295 295 295 294 294 294 294 294 294 293 293 293 293 293 294 294 294 294 294 294 295 295 296 295 295 295 295 295 295 295 295 295 295 295 295 295 295 294 294 293
310 310 309 308 307 307 308 308 307 305 304 301 299 298 299 300 301 302 302 302 301 301 301 301 300 299 299 299 299 300 299 298 297 296 296 296 297 297 297 296 296 296 296 296 296 295 295 295 295 294 293 293 293 294 293 293 293 293 293 293 293 293 293 293 294 294 294 295 295 295 294 294 295 295 295 295 295 295 295 295 295 295 294 294 294
310 309 309 307 307 308 308 307 306 304 302 300 298 297 299 300 300 300 301 301 300 299 298 299 299 297 297 297 297 297 297 297 297 296 296 297 297 297 297 296 296 296 296 296 296 296 295 295 294 294 293 293 293 293 293 293 293 293 293 293 293 293 293 293 293 294 294 294 294 294 294 294 294 295 295 295 295 295 295 295 295 294 294 294 294
309 309 308 308 307 308 308 307 306 304 301 300 298 297 298 300 299 299 300 300 299 298 298 298 298 297 297 297 297 297 297 297 297 296 296 297 297 297 297 297 296 296 296 296 296 296 295 295 294 294 293 293 293 293 293 293 293 293 293 293 293 293 293 293 293 293 293 294 294 294 294 294 294 294 294 295 294 294 294 294 294 294 294 294 294
309 309 308 308 308 308 307 306 305 303 301 300 298 296 298 299 299 298 299 299 299 298 297 298 298 297 297 297 297 297 297 297 296 296 296 297 296 296 297 296 296 296 296 296 296 296 295 295 294 293 293 293 293 292 292 292 292 293 293 293 293 293 293 293 293 293 293 293 293 294 294 294 294 294 294 294 294 294 294 294 294 294 294 294 294
309 309 308 308 307 307 307 305 304 302 300 299 297 296 296 298 298 298 298 298 298 297 297 297 297 297 297 297 297 297 296 296 296 296 296 296 296 296 296 296 296 296 296 295 295 295 295 294 294 293 293 292 293 292 292 291 291 292 292 293 293 293 292 292 292 292 292 292 293 293 293 293 293 293 293 293 294 294 294 294 294 294 294 294 295
309 308 308 307 306 306 306 305 303 301 299 298 297 295 295 296 296 296 296 296 296 296 296 296 296 296 296 296 296 296 296 296 296 296 296 295 295 295 296 296 296 296 296 295 295 294 294 294 293 293 293 292 292 292 292 291 291 291 291 292 292 292 292 292 292 292 292 292 292 292 292 292 293 293 293 293 293 293 293 293 293 294 294 294 294
308 307 306 306 306 305 306 305 304 302 299 297 296 295 295 296 296 296 296 296 295 295 295 295 295 295 295 295 295 296 296 295 296 296 296 295 295 295 296 296 296 296 296 295 295 294 294 293 293 293 293 293 292 292 291 291 291 291 291 291 292 292 292 292 292 292 291 291 291 291 292 292 292 292 292 292 292 292 292 292 293 293 293 294 294
306 305 305 305 305 304 304 304 303 302 299 297 296 296 297 298 298 298 298 297 297 297 296 296 296 295 295 295 295 295 295 295 295 296 296 295 295 295 295 295 296 296 296 295 295 294 294 294 293 293 293 293 293 293 292 292 292 291 291 291 291 291 291 292 292 292 292 291 291 291 291 291 291 291 291 291 291 291 291 291 292 292 292 293 293
305 304 304 304 304 304 303 302 302 301 299 297 297 298 298 298 299 299 299 299 298 298 298 297 297 295 294 293 293 294 295 295 295 295 295 295 295 295 295 296 296 295 295 295 295 295 294 294 294 293 293 293 293 293 293 292 292 292 292 292 292 291 291 291 291 291 292 291 291 291 291 291 291 291 291 291 291 291 291 291 291 291 291 291 292
304 303 304 304 304 304 303 301 300 299 298 297 298 299 299 299 299 299 300 300 300 299 299 298 297 295 293 291 291 293 294 295 295 295 295 295 295 295 295 295 295 295 295 295 295 295 295 294 294 294 293 293 293 293 293 293 293 292 292 293 293 292 292 292 291 291 291 291 291 291 291 291 291 291 291 291 291 291 291 291 290 290 290 290 290
305 304 303 304 303 303 302 299 297 297 297 298 299 300 300 300 299 299 300 300 300 301 300 299 297 294 292 290 291 293 294 295 295 295 295 295 296 295 295 295 295 295 295 295 295 295 295 295 295 294 294 294 294 293 294 293 293 293 293 293 293 293 293 293 292 292 291 291 291 291 291 291 291 291 291 291 291 291 291 291 290 290 290 290 290
306 305 305 304 303 302 301 299 298 298 298 300 300 301 301 301 301 300 300 300 300 300 301 300 296 293 291 290 292 294 295 295 295 295 295 296 296 296 296 296 296 296 295 295 295 295 295 295 295 295 294 294 294 294 294 294 293 293 293 293 294 294 294 294 294 294 293 292 292 291 291 291 291 291 291 291 291 291 291 291 291 290 290 290 290
306 306 306 305 305 303 302 302 301 301 301 301 302 302 302 302 302 302 301 300 300 301 300 298 296 293 291 291 292 294 295 295 295 295 295 296 296 296 296 296 296 296 296 295 295 295 295 295 295 295 295 294 294 294 294 294 294 294 294 294 295 295 295 295 295 295 295 294 293 293 292 292 292 291 291 292 291 291 291 291 291 291 290 290 290
305 305 305 305 305 305 304 303 303 303 302 302 302 302 302 302 302 302 302 301 302 301 299 297 296 293 291 291 293 294 294 295 295 295 295 296 296 296 296 296 296 296 296 296 296 296 295 295 295 295 295 295 294 294 294 294 295 295 294 295 295 295 295 295 295 295 295 295 295 295 294 294 293 292 292 292 292 292 292 291 291 291 291 291 291
305 304 304 303 304 304 304 303 303 303 303 303 302 302 302 302 302 301 301 301 301 300 298 297 295 292 290 292 294 294 294 294 295 295 295 296 296 296 296 296 296 296 296 296 296 296 296 296 295 295 295 295 295 295 294 294 295 295 295 295 294 294 294 294 294 295 295 294 295 295 295 295 294 293 293 293 293 292 292 292 292 292 292 292 291
305 305 304 303 303 303 302 302 301 302 302 302 302 302 301 301 301 301 300 300 300 299 297 296 294 291 291 292 294 294 294 294 295 295 296 296 296 296 296 296 296 296 296 296 296 296 296 296 296 296 296 296 295 295 295 295 295 295 295 294 294 294 294 294 294 294 294 294 294 294 294 294 294 294 294 293 293 293 293 293 293 293 293 293 292
304 304 304 304 303 303 302 301 301 301 301 301 301 301 301 300 299 299 299 299 299 298 297 295 292 290 291 293 294 294 294 294 295 295 296 296 296 296 296 296 297 296 296 296 296 296 296 296 296 296 296 296 296 296 296 295 295 295 295 295 295 295 295 295 295 295 295 294 294 294 294 294 294 294 294 294 294 294 293 293 293 293 293 293 293
303 302 302 302 303 302 302 302 302 301 301 301 300 300 300 300 299 299 299 298 297 296 295 293 291 290 291 292 293 294 294 294 295 296 296 296 296 296 296 297 297 297 297 296 296 297 297 297 297 297 296 297 296 296 296 296 296 296 295 295 295 296 296 296 295 295 295 295 295 295 295 295 294 294 294 294 294 294 294 294 294 293 293 293 293
303 302 301 301 302 302 302 302 302 301 301 301 300 300 299 299 299 299 298 296 295 293 292 292 291 291 291 291 292 293 293 294 295 296 296 296 296 296 297 297 297 297 297 297 297 297 297 297 297 297 297 297 297 297 297 296 296 296 296 296 296 296 296 296 296 296 296 296 295 295 295 295 295 295 295 295 295 295 294 294 294 294 294 294 293
303 302 301 300 301 302 301 301 301 301 301 301 300 300 299 299 299 298 297 295 293 291 291 291 291 291 292 292 291 292 293 294 295 296 296 297 297 296 296 297 297 297 298 298 298 298 298 297 297 297 297 297 297 297 297 297 296 296 296 296 296 296 296 296 296 296 295 295 295 295 295 295 295 295 295 295 295 295 295 295 295 295 294 294 294
303 302 301 301 301 302 302 302 301 301 300 300 300 299 299 299 299 298 296 294 292 291 291 292 292 292 293 293 293 294 294 295 296 297 297 297 297 297 296 296 297 298 298 297 298 298 298 298 297 297 297 297 297 297 297 297 297 297 296 296 296 296 296 296 296 295 295 295 295 295 295 295 295 295 295 295 295 295 295 295 295 295 295 295 294
302 302 302 301 301 301 301 301 301 301 300 300 299 299 299 299 299 297 295 292 291 291 292 293 295 295 296 296 296 296 297 297 297 298 298 298 298 298 297 296 297 297 298 298 298 298 298 298 297 297 297 297 297 297 297 297 297 296 296 296 296 296 295 295 295 295 295 295 295 295 295 295 295 295 295 295 294 294 294 294 294 294 294 294 294
302 302 302 301 300 300 300 300 300 300 299 299 298 298 298 298 297 296 293 291 291 293 294 296 297 297 297 298 297 298 298 298 298 298 299 298 298 298 298 297 298 298 298 298 298 298 298 298 298 298 297 297 297 297 296 296 296 296 296 295 295 295 295 295 294 294 294 294 294 294 294 294 295 295 294 294 294 293 293 294 294 293 293 293 293
302 302 302 301 300 299 298 298 298 298 297 297 297 297 296 296 295 293 292 292 294 295 297 298 298 298 298 298 298 298 298 299 299 299 299 299 298 299 299 298 298 298 298 298 299 299 299 299 298 298 298 298 297 297 296 296 296 296 295 295 295 294 294 294 294 294 294 294 294 294 294 294 295 294 294 294 294 293 294 294 293 293 293 292 292
302 302 301 301 300 299 298 297 297 296 295 295 295 295 294 293 292 291 292 294 296 297 298 298 298 298 298 298 298 298 298 298 299 299 299 299 299 299 299 299 298 299 298 298 298 298 298 298 298 298 298 298 298 297 296 296 295 295 295 295 294 294 294 294 294 294 293 293 293 293 294 294 294 294 294 294 294 294 294 294 293 293 293 292 292
302 301 301 301 301 299 298 297 295 294 293 293 293 293 292 292 292 293 295 297 297 298 298 298 298 298 298 298 298 298 298 298 299 299 299 299 299 299 299 299 299 299 299 299 299 298 298 298 298 298 298 298 298 297 297 296 295 295 294 294 294 293 293 293 293 293 293 293 293 293 293 293 293 293 293 293 293 293 293 293 293 292 292 292 292
301 301 301 301 300 299 297 296 294 293 292 292 292 291 291 292 293 295 297 297 298 298 298 298 298 298 298 298 299 299 299 299 299 299 299 299 299 299 299 299 299 299 299 299 299 298 298 298 298 298 298 298 297 297 296 296 295 294 294 293 293 293 292 292 292 292 292 292 292 292 292 292 292 292 292 292 292 292 291 291 291 291 290 290 291
301 300 300 300 299 297 296 294 293 292 292 292 293 293 293 294 295 296 297 297 298 298 298 298 298 299 299 299 299 299 299 299 299 299 299 299 299 299 299 299 299 299 299 298 298 298 298 298 297 297 297 297 296 296 295 295 294 294 293 292 292 291 291 291 292 292 292 292 292 291 291 290 290 289 289 289 288 288 288 288 288 288 288 288 288
300 300 299 299 297 295 294 293 293 293 293 294 295 296 296 296 297 297 298 298 298 298 299 299 299 299 299 299 299 299 299 299 299 299 299 299 299 299 299 299 299 299 298 298 298 298 297 297 297 296 296 295 295 294 294 293 293 292 291 291 291 291 291 291 291 291 290 290 289 288 288 287 286 285 285 284 284 283 283 283 283 283 283 284 285
Wind_Speed
21 21 22 24 24 24 23 24 26 27 27 27 26 24 23 21 20 18 16 14 13 13 13 13 13 13 13 14 14 13 12 13 13 13 15 15 14 13 12 13 15 16 16 17 18 17 18 19 19 19 18 19 19 19 19 19 18 18 19 19 20 18 15 14 10 13 22 25 23 26 30 30 31 32 33 32 31 32 32 30 29 28 28 29 31
23 23 24 25 26 26 26 26 27 27 28 26 25 24 23 21 19 17 16 15 14 14 15 15 14 14 14 13 12 12 12 13 13 13 14 14 14 13 12 13 15 16 18 19 19 19 20 20 20 20 20 21 23 23 23 23 23 23 23 22 22 22 19 16 14 12 19 26 27 29 32 31 29 29 30 30 30 33 34 31 28 27 27 28 30
25 25 25 26 28 29 29 29 28 28 27 25 24 24 22 20 18 17 17 17 16 16 15 16 15 14 14 13 12 12 13 14 14 13 13 13 14 14 13 14 16 18 20 21 21 21 22 23 23 22 23 25 27 27 26 26 27 26 26 25 24 24 23 21 17 14 17 23 26 27 30 31 29 28 29 28 28 30 31 29 28 27 27 27 28
27 28 29 29 29 31 31 31 30 28 26 25 24 23 21 20 18 17 18 18 18 17 16 16 15 15 15 15 15 15 15 15 13 13 12 13 14 15 15 17 19 20 21 21 22 23 24 24 24 23 24 26 26 25 25 25 26 26 26 26 25 25 25 24 22 19 17 21 25 25 25 27 27 27 28 29 28 28 27 27 28 28 27 26 25
30 31 32 32 31 31 32 32 30 27 26 24 24 22 21 20 18 18 19 19 18 17 16 16 16 16 17 17 18 17 15 13 13 13 13 14 15 17 18 20 21 21 21 21 22 22 23 23 22 22 23 23 22 22 22 22 23 24 23 24 26 26 26 26 25 24 20 20 24 26 25 25 25 25 27 28 29 30 29 28 26 26 27 27 25
31 32 33 33 32 32 32 31 29 27 25 24 23 21 20 19 19 18 18 18 17 16 17 18 18 18 19 19 18 17 14 12 13 15 16 17 19 20 21 22 21 21 21 20 20 20 21 20 20 20 20 20 19 19 20 20 21 21 22 23 24 25 27 27 27 27 24 23 24 26 26 26 26 26 27 28 28 29 32 33 29 26 27 29 29
31 31 32 34 33 32 31 30 28 27 25 24 23 21 20 19 19 18 17 16 16 17 19 21 20 20 21 20 18 15 14 14 16 19 20 21 22 22 22 22 21 21 20 19 18 18 18 18 17 17 17 17 17 18 18 19 19 20 21 22 23 25 27 28 29 28 25 24 24 24 25 25 26 26 27 27 27 26 29 33 33 32 30 30 31
30 29 30 32 33 32 30 29 28 27 25 24 23 22 21 20 19 18 16 15 17 20 22 23 23 22 21 19 17 15 15 18 21 23 24 23 23 22 21 21 20 19 19 18 17 17 16 16 16 16 16 16 16 16 17 18 20 21 21 22 23 25 27 27 28 27 23 23 23 23 24 26 26 27 28 29 29 29 30 30 30 32 32 30 29
31 30 30 31 32 32 30 29 28 27 26 25 24 23 22 21 19 18 17 18 21 23 24 24 24 24 21 19 17 16 19 22 24 25 25 24 23 22 21 20 19 18 18 17 17 17 16 16 16 16 16 16 15 15 16 17 19 21 21 23 24 25 26 27 27 26 22 21 22 23 23 25 27 28 28 28 28 29 31 29 27 29 31 30 27
34 34 33 32 32 31 30 29 28 27 27 27 26 25 23 22 20 19 20 22 24 25 25 25 25 24 21 19 18 20 23 25 25 25 24 23 22 22 21 20 19 18 17 17 16 16 16 16 16 15 15 15 14 15 15 16 18 19 20 22 23 24 25 26 27 25 22 20 21 22 22 22 25 25 25 27 27 27 29 28 27 29 29 27 25
35 33 33 32 32 31 30 29 29 29 29 28 26 25 24 22 22 22 23 24 26 26 27 27 25 23 21 20 21 24 26 26 25 24 23 22 21 21 20 19 18 18 17 16 15 14 14 14 14 14 15 15 14 14 14 16 18 19 20 20 20 21 22 23 24 24 22 19 20 20 20 20 22 23 23 26 27 27 27 26 26 28 27 24 21
32 31 31 31 31 30 29 29 30 29 29 28 27 25 23 23 24 24 25 25 27 27 28 27 25 22 21 23 25 27 26 25 24 23 21 20 19 18 18 18 17 17 16 16 16 15 14 13 13 14 16 15 14 14 14 15 17 18 19 19 18 19 19 20 21 21 21 19 19 19 19 19 21 22 24 26 27 27 26 25 25 25 25 23 21
30 28 27 28 29 30 30 30 30 30 29 28 27 25 24 24 25 25 25 26 27 28 28 26 24 23 23 26 28 27 25 24 22 21 20 19 17 16 16 16 15 15 16 16 16 16 15 14 14 15 16 15 14 14 14 14 15 16 17 18 19 20 20 20 19 18 19 19 18 18 18 18 19 20 23 25 26 27 26 26 26 24 24 23 23
30 28 27 28 28 29 30 30 31 31 31 29 28 26 25 25 25 25 26 27 28 29 28 26 25 25 26 28 28 26 24 23 21 20 19 17 16 15 15 14 14 14 15 15 15 15 14 14 14 15 15 15 15 15 14 14 15 16 17 19 21 22 22 22 21 19 18 18 17 17 17 17 17 19 22 24 24 25 26 25 25 24 24 23 22
30 30 29 28 28 29 30 31 31 31 31 30 28 27 26 26 26 26 26 27 29 29 27 26 27 27 28 29 28 25 23 21 20 18 17 16 15 14 13 13 14 14 14 13 13 13 13 13 14 15 15 15 15 14 14 14 15 16 17 20 23 23 23 23 22 20 19 18 17 17 17 16 16 17 20 23 23 23 21 20 21 21 21 21 21
29 28 28 28 28 29 30 31 31 31 31 30 28 27 27 26 26 26 26 27 29 29 27 26 28 29 29 28 27 24 22 20 18 16 15 14 13 13 12 13 13 13 13 12 12 12 11 12 12 14 14 14 14 14 14 14 16 17 18 20 23 24 24 23 22 21 21 21 20 19 18 17 16 16 18 20 22 22 19 19 22 22 22 22 22
28 28 28 29 29 29 30 31 31 31 31 30 29 27 26 25 25 26 27 28 30 29 27 27 28 28 28 26 24 23 21 19 17 15 14 13 12 11 11 12 12 12 12 11 11 11 11 11 11 12 13 13 14 14 14 15 16 17 18 20 22 25 25 24 24 23 23 23 22 22 22 21 20 19 19 20 22 23 21 23 25 26 23 20 19
28 28 29 30 31 31 31 32 32 31 31 30 29 27 26 25 25 26 27 29 30 29 28 28 27 26 25 24 23 21 19 18 16 14 13 12 11 10 10 10 11 11 10 10 10 10 11 11 10 10 11 12 13 13 14 15 16 17 18 19 21 24 25 25 26 26 25 25 25 25 26 26 26 25 24 24 23 23 23 23 25 25 23 19 19
29 29 29 30 31 32 32 32 32 32 31 29 28 26 25 25 25 26 27 28 29 29 29 28 26 25 23 21 21 20 19 18 16 14 12 11 10 9 9 9 10 10 9 9 9 9 10 10 10 10 10 11 12 13 14 15 16 17 17 18 20 22 23 24 25 26 27 27 27 28 28 29 29 29 29 28 26 25 24 23 24 24 22 21 21
28 28 28 29 31 32 33 33 32 31 30 28 26 25 24 24 26 27 28 28 29 29 28 27 26 24 22 20 19 19 19 18 16 13 12 10 9 8 8 8 9 9 8 8 8 8 9 9 10 10 9 9 10 12 13 14 15 16 16 18 19 20 20 22 23 25 26 27 27 28 29 29 30 30 30 30 29 27 25 23 23 23 22 22 23
29 29 29 30 32 33 33 33 31 30 28 27 25 24 24 25 27 28 28 28 28 28 27 26 25 23 21 19 18 18 18 18 16 13 11 10 8 8 7 7 7 7 7 7 6 6 7 8 9 10 9 8 9 10 11 12 13 14 15 16 16 17 18 21 22 24 25 26 27 28 29 30 31 31 31 31 30 29 27 25 23 22 21 21 22
31 31 31 32 33 33 33 31 30 29 28 27 25 25 25 26 28 29 28 28 28 28 27 26 24 23 21 20 19 19 19 18 16 13 12 10 8 7 7 6 6 6 6 5 5 5 5 6 8 9 9 8 7 8 9 10 11 12 13 13 14 15 17 19 21 23 24 25 26 27 29 30 31 31 32 32 32 31 31 29 26 24 21 21 20
32 32 32 32 33 33 32 30 29 29 28 27 26 26 27 28 29 29 29 29 29 29 28 27 25 24 22 21 20 20 19 18 15 12 12 10 8 7 7 6 6 5 5 4 4 4 4 5 6 7 8 8 7 7 7 8 10 10 11 11 12 14 16 18 21 22 23 24 25 26 27 28 29 30 31 31 32 32 32 31 31 28 26 23 22
32 32 31 32 33 32 31 29 29 29 29 27 26 28 29 29 29 29 30 30 30 29 28 27 27 25 23 22 21 19 18 16 13 12 12 10 7 7 7 6 5 4 4 3 3 3 4 4 5 6 7 8 7 6 6 7 8 9 10 10 11 13 15 17 19 21 22 23 23 24 24 25 26 27 28 29 29 30 31 31 32 32 31 29 27
32 32 32 32 32 32 30 30 29 29 29 27 27 28 30 30 30 30 30 30 30 29 28 27 26 25 23 22 20 18 17 15 13 12 11 10 7 6 7 6 5 4 3 3 2 2 3 4 4 5 6 7 7 7 6 6 7 8 9 10 11 13 14 16 17 19 20 21 21 22 22 23 24 24 25 26 27 28 30 31 32 32 33 33 33
32 31 31 31 32 32 31 31 31 30 29 27 27 28 30 31 31 30 29 29 28 27 27 25 24 23 22 21 20 18 16 14 13 12 11 9 7 6 7 6 5 5 4 2 2 2 2 3 3 4 5 6 6 7 7 6 6 7 8 9 11 12 14 15 16 17 18 18 18 19 20 21 21 22 23 25 27 28 29 30 31 32 32 32 33
32 31 31 32 32 32 33 32 32 32 30 29 29 29 30 31 31 30 29 28 27 26 25 24 23 23 21 20 19 18 16 15 13 12 11 9 7 6 6 6 6 6 4 3 2 1 2 2 3 4 5 5 5 6 7 7 7 7 8 9 10 11 13 14 15 15 15 16 17 18 18 19 20 21 23 24 25 26 27 28 29 30 30 31 31
33 31 31 32 32 32 33 33 32 32 31 31 31 31 31 31 30 29 28 26 26 26 24 23 23 22 22 21 20 18 17 16 14 13 11 9 8 7 6 6 6 6 5 4 2 1 1 1 2 4 5 5 5 5 6 7 9 9 9 8 9 10 11 12 13 14 14 15 16 17 18 19 20 21 22 23 23 24 25 26 27 27 28 29 28
33 32 32 32 32 32 32 32 32 32 31 31 31 31 31 29 27 25 24 22 20 20 21 21 20 20 20 20 20 20 19 17 15 14 11 9 8 8 7 6 6 6 6 5 3 2 1 1 1 2 4 6 6 6 7 7 8 10 10 9 9 9 10 11 13 14 15 16 17 18 18 19 19 20 21 22 23 23 24 25 25 25 26 27 26
32 32 32 32 32 32 32 32 32 32 31 32 31 30 29 26 24 22 21 19 17 15 14 13 14 15 16 17 18 19 18 16 15 14 12 10 9 8 7 7 6 5 6 6 4 2 2 2 2 2 3 5 6 7 8 8 9 10 10 11 10 10 10 11 12 13 15 16 16 18 18 19 20 20 21 22 23 23 23 23 24 24 24 25 25
32 31 32 33 33 33 33 32 32 32 32 33 32 30 28 26 23 22 20 18 17 14 11 9 9 10 11 13 15 16 14 14 15 14 12 10 9 8 8 7 6 6 6 5 4 2 2 2 3 2 3 4 5 6 7 7 8 9 10 11 11 11 11 12 12 13 14 15 16 16 17 18 20 20 21 22 23 24 24 24 24 24 24 23 23
33 32 32 33 34 34 33 33 32 32 33 33 33 31 28 25 22 21 20 20 19 16 12 9 7 8 8 9 13 15 16 17 16 14 11 10 9 9 8 7 7 6 6 5 4 3 3 3 3 3 4 4 5 5 6 7 7 8 9 10 11 12 12 13 13 13 13 14 16 16 16 17 19 20 20 21 22 24 25 25 25 25 24 24 24
35 33 33 34 34 34 34 34 33 34 34 33 32 30 29 26 23 19 18 19 19 18 16 12 9 8 9 9 12 15 18 18 15 12 11 10 9 8 9 9 8 7 7 6 5 4 4 3 3 3 4 5 6 6 7 7 7 8 9 10 11 11 12 13 14 13 12 13 14 15 16 17 19 20 20 21 21 22 24 24 25 25 26 26 25
36 36 36 36 35 35 35 35 35 35 35 33 31 30 29 27 24 21 18 16 16 17 17 15 11 10 10 11 14 17 18 17 14 12 10 9 8 9 9 9 9 9 8 8 7 6 5 4 3 3 5 6 6 7 8 8 8 8 8 9 10 10 10 11 12 13 13 13 14 15 16 17 18 20 21 21 21 22 23 23 24 25 25 25 26
36 36 36 36 36 36 36 36 36 35 34 32 31 29 27 25 23 22 19 18 17 17 17 16 13 12 12 13 16 18 18 16 13 11 9 8 8 8 8 8 8 8 9 9 8 7 7 6 5 5 5 6 7 7 8 8 8 8 8 9 9 10 10 11 11 12 13 14 15 16 17 18 19 19 20 21 21 21 23 23 23 23 24 24 25
35 36 35 35 36 36 36 36 35 34 33 32 30 28 26 24 22 21 20 19 18 19 19 18 15 13 14 15 18 19 18 15 13 11 9 8 8 8 9 9 8 8 8 7 7 7 7 7 6 6 6 7 7 7 8 8 8 8 8 9 10 11 11 12 12 14 15 15 16 17 18 18 19 20 21 21 21 21 21 22 23 24 23 23 24
35 35 35 35 35 36 35 34 34 33 32 31 29 27 25 23 22 21 20 20 20 21 22 20 18 16 17 18 19 19 18 15 13 12 10 9 9 9 9 9 9 9 8 7 7 7 7 6 6 6 6 7 7 7 8 9 9 10 10 11 12 13 13 14 14 15 16 17 17 18 19 19 19 20 21 22 22 21 21 22 23 25 25 25 24
35 35 36 35 35 34 33 32 32 31 30 29 28 26 25 23 23 22 22 22 22 23 23 21 20 20 20 20 21 20 18 16 15 14 12 11 10 9 9 10 10 10 10 9 8 8 8 7 7 7 7 8 8 8 9 9 10 10 11 11 12 13 14 14 15 15 16 17 18 18 19 19 19 20 20 21 22 22 22 22 23 24 25 26 25
33 34 35 35 34 33 32 31 30 29 29 29 28 26 25 25 25 24 23 22 22 22 22 22 21 21 21 21 21 21 19 17 17 16 14 12 11 10 10 10 11 12 11 11 10 10 10 9 9 9 9 9 9 10 10 10 10 11 11 12 13 13 13 14 15 15 15 16 17 18 19 19 19 20 20 21 21 22 22 23 23 23 23 25 25
32 32 33 33 33 32 31 31 30 29 29 29 28 27 27 27 26 24 22 21 21 21 22 23 22 22 21 21 22 22 21 20 19 17 16 14 13 11 11 11 12 13 13 12 12 12 12 11 11 12 12 12 12 11 11 11 12 12 12 13 14 14 15 15 15 15 15 16 17 17 18 19 19 19 21 21 21 22 22 23 24 24 23 24 24
31 31 31 30 30 30 30 30 30 30 29 28 27 28 28 27 25 23 22 20 20 21 22 22 21 20 19 20 21 22 22 21 20 18 17 15 14 13 13 13 13 14 14 13 13 13 13 13 13 14 14 15 14 14 13 13 13 14 14 14 15 16 17 17 18 18 18 18 19 19 20 20 20 21 21 22 22 23 23 24 24 25 25 25 25
28 29 29 29 29 29 29 29 29 28 27 27 27 28 27 26 24 23 21 20 20 21 21 21 20 19 19 19 20 20 21 20 19 18 16 15 13 12 13 14 15 15 14 14 13 13 13 14 14 15 15 16 16 16 16 16 16 16 16 17 18 19 20 20 21 22 22 22 22 22 23 24 24 23 23 24 24 24 25 25 25 26 26 27 27
26 28 29 28 28 28 28 28 27 27 27 27 27 27 26 25 23 22 20 20 21 21 21 21 20 19 18 18 18 18 19 18 18 16 15 13 12 12 13 15 15 15 14 14 13 13 13 15 15 16 16 17 17 18 19 20 21 21 21 21 22 23 23 24 25 25 25 26 26 26 27 27 27 26 26 26 26 26 26 27 27 27 28 28 28
26 27 28 28 27 26 26 26 26 26 27 27 26 25 24 23 22 21 21 21 22 22 22 21 20 19 18 18 17 17 18 18 17 16 15 14 13 12 13 14 15 15 15 15 14 14 15 16 17 17 18 19 19 20 21 23 24 25 24 24 24 24 25 25 25 26 26 27 28 28 28 28 29 29 29 28 27 27 27 28 28 28 28 29 29
27 27 27 27 26 25 24 24 24 24 24 24 23 22 22 22 22 22 21 21 22 22 22 20 19 18 17 17 16 17 18 18 17 16 14 13 12 11 11 12 13 14 15 15 15 15 16 17 17 19 20 20 21 22 23 24 25 25 24 23 23 24 24 25 25 25 25 24 25 25 25 26 26 27 27 27 26 25 25 26 27 27 27 28 28
25 27 27 26 25 24 23 22 21 21 21 22 22 22 22 22 21 21 21 22 23 22 21 19 18 17 16 16 15 14 15 15 15 14 13 12 12 11 11 12 13 13 14 15 15 16 17 18 18 18 19 19 20 22 23 24 24 23 23 23 22 22 23 23 23 22 21 20 20 20 21 21 22 23 23 24 24 23 23 24 24 24 24 25 25
25 26 26 26 25 23 22 21 20 20 21 21 22 22 22 21 21 21 22 23 22 21 19 18 17 16 16 15 13 12 11 11 11 12 11 12 12 12 12 13 13 13 14 14 15 16 16 17 16 17 17 18 19 20 21 21 21 20 20 20 19 19 19 19 19 18 17 17 17 18 18 19 21 21 21 22 23 23 24 24 24 23 23 23 23
26 26 26 25 25 23 21 20 20 21 21 21 21 21 21 21 22 23 23 23 21 20 18 17 17 16 15 15 13 11 10 10 10 11 11 12 12 11 12 12 12 13 13 13 13 13 13 13 13 14 15 15 16 16 16 16 16 15 15 15 15 15 16 16 16 16 16 16 17 18 18 19 20 20 21 22 22 23 24 24 24 25 24 24 24
26 26 26 25 24 22 22 22 21 21 21 20 20 20 20 21 23 24 23 21 20 19 18 17 16 15 15 14 13 12 11 10 10 11 11 11 11 11 12 12 11 10 10 9 9 9 9 10 10 11 11 12 12 12 12 12 12 12 13 13 13 13 14 14 15 16 17 17 18 18 19 19 19 19 20 20 21 22 23 23 24 25 25 25 25
24 24 23 23 22 22 21 21 21 21 20 20 19 20 21 22 23 22 21 20 19 18 17 16 15 14 14 13 12 11 10 10 11 11 11 11 11 11 9 8 7 7 7 7 7 7 8 9 9 10 10 10 10 10 10 10 11 11 11 12 13 14 15 15 16 17 18 19 19 20 20 20 20 20 20 20 21 21 22 22 22 23 23 23 24
22 21 20 21 21 21 20 20 20 20 20 19 20 20 21 22 22 21 20 19 18 16 15 14 13 13 13 13 12 12 11 11 11 12 12 11 9 8 7 7 7 7 7 8 8 8 9 9 9 9 9 9 9 9 9 9 10 10 11 12 13 15 16 17 18 19 19 20 20 21 21 21 22 21 21 21 21 21 21 21 21 21 21 21 20
Wind_Direction
165 169 165 162 163 163 159 156 157 155 153 153 151 149 148 145 143 141 138 137 139 138 138 137 136 134 131 131 131 128 126 123 121 122 120 118 115 105 92 80 77 76 75 74 72 70 70 69 66 62 60 59 56 52 49 47 44 41 37 31 25 22 10 353 338 319 327 338 342 343 346 348 348 350 349 346 344 344 345 346 348 346 342 341 342
168 166 159 157 157 155 153 153 153 151 149 149 148 147 146 143 142 142 140 141 143 144 143 140 139 138 134 133 133 131 127 123 123 122 120 118 113 102 90 82 82 83 81 77 75 73 73 71 68 66 64 65 63 59 55 51 48 44 39 34 28 24 20 8 352 333 329 337 344 347 348 349 347 346 348 345 341 342 343 344 344 342 339 339 340
165 159 156 157 154 151 150 150 149 148 148 147 146 144 142 141 144 145 143 144 146 145 144 142 141 139 135 134 133 131 127 125 125 123 121 119 111 101 93 89 89 88 84 80 78 76 75 73 71 71 71 69 64 60 56 51 47 43 37 33 28 22 21 17 6 353 336 334 342 347 347 347 346 346 346 344 342 342 342 340 340 338 337 338 337
158 158 157 156 153 149 147 145 146 147 145 143 142 141 139 142 147 148 146 147 147 146 145 145 144 141 137 134 132 130 128 126 125 122 120 117 109 103 98 95 92 89 85 82 79 77 76 75 73 72 70 66 62 56 51 47 42 39 34 29 26 20 18 17 11 2 347 338 342 346 346 345 345 346 347 345 343 343 341 338 338 336 336 338 337
158 155 152 148 145 143 140 140 143 143 141 139 138 139 142 147 150 150 149 149 147 147 147 148 147 144 139 136 133 131 128 127 125 122 119 114 109 106 102 97 93 89 86 83 81 79 77 75 73 70 65 61 57 50 44 40 35 31 28 23 21 18 14 13 10 5 358 348 344 345 348 348 346 347 350 347 344 342 340 337 338 338 337 338 337
152 147 145 141 138 136 136 139 141 141 140 139 140 144 148 150 151 151 151 150 148 148 149 149 150 146 141 138 135 131 127 126 124 122 119 115 111 107 101 97 92 89 87 84 81 80 77 74 69 63 58 51 45 39 33 29 25 21 19 16 14 13 12 10 8 6 2 356 351 349 350 350 348 348 351 350 347 343 340 337 338 343 344 341 339
144 142 141 138 134 133 135 139 142 142 142 143 145 149 151 151 150 149 150 151 149 149 149 149 148 144 141 138 135 129 125 124 124 122 119 115 110 106 100 97 93 89 87 83 81 79 74 70 64 55 49 41 35 30 25 22 22 19 17 15 14 13 13 11 9 7 2 358 357 354 352 351 349 347 347 349 348 347 345 341 337 342 345 343 340
137 135 135 134 134 136 140 143 144 145 144 145 148 150 150 150 148 148 150 151 150 150 149 147 143 141 140 137 132 126 125 126 126 122 118 113 109 104 100 97 94 91 87 83 79 75 70 66 60 52 46 40 34 30 27 25 26 25 23 22 21 20 18 14 11 7 3 0 0 357 353 353 352 349 349 352 351 348 347 343 337 338 341 342 341
132 135 137 137 138 142 146 146 145 145 145 146 148 149 150 149 148 148 149 148 147 147 146 144 142 141 139 134 128 126 127 127 126 121 116 112 108 104 100 97 94 92 89 86 80 75 71 66 61 55 49 44 40 37 35 33 31 30 28 27 26 24 20 16 12 8 3 2 2 358 355 355 355 353 351 353 350 343 341 341 338 337 338 339 340
141 146 147 145 144 146 147 146 146 147 146 147 147 148 149 147 147 147 146 145 145 145 145 145 144 141 136 131 128 129 129 126 123 120 115 111 107 104 101 98 95 93 89 87 83 78 73 68 61 56 49 43 42 41 40 39 37 36 34 30 27 23 19 16 14 10 5 2 1 359 357 354 355 354 350 347 345 341 340 341 340 339 339 340 339
149 151 149 147 146 146 146 146 147 147 146 146 146 147 147 146 146 145 144 145 146 146 146 144 141 138 133 131 131 130 128 125 122 119 114 110 107 104 101 98 95 91 87 84 81 77 72 66 59 51 43 41 43 44 43 42 43 43 39 34 29 23 17 14 12 12 8 2 359 1 360 353 352 354 351 347 345 344 343 342 342 341 341 340 335
149 148 147 146 145 146 148 147 146 144 145 146 147 147 147 146 145 144 144 147 147 146 145 141 138 137 134 132 131 130 128 125 122 119 114 110 108 104 101 99 94 89 85 81 78 74 69 64 56 46 42 43 46 47 46 45 45 43 36 31 26 21 17 13 11 12 12 6 0 3 3 355 353 355 355 351 346 345 345 345 345 342 338 338 332
144 143 143 144 145 148 150 148 145 145 147 149 149 148 147 147 146 146 146 148 148 146 143 140 137 137 135 133 132 130 128 126 123 119 114 111 109 106 103 100 96 91 85 81 77 73 69 63 54 47 45 47 47 46 45 43 41 38 34 30 26 26 27 25 21 19 18 13 6 4 4 359 355 355 358 356 349 347 346 344 345 342 337 336 331
142 144 145 146 147 148 149 147 147 147 149 150 148 148 149 149 148 148 148 149 149 147 143 141 139 137 135 134 133 132 130 128 125 120 115 111 108 109 107 103 99 92 85 82 78 73 68 60 54 50 48 48 46 44 41 38 36 36 36 34 32 33 34 31 29 28 25 23 17 11 9 6 360 357 0 1 356 351 347 342 341 340 336 332 329
147 148 147 147 147 148 148 148 147 147 149 150 149 150 151 150 150 150 150 150 151 148 144 142 141 137 135 135 134 133 132 131 128 122 117 113 109 109 109 105 100 92 86 84 80 75 69 61 55 52 50 47 44 42 39 37 36 36 37 36 35 36 36 34 33 33 32 32 28 23 20 15 10 6 5 7 4 357 349 344 342 340 337 337 341
148 146 144 145 147 147 147 146 145 147 150 151 151 152 152 153 153 152 151 151 151 148 145 145 144 140 137 137 135 134 134 134 133 127 119 115 113 111 109 105 100 95 91 88 84 79 71 62 56 52 50 47 43 40 37 34 33 34 36 36 35 36 38 39 40 40 39 39 36 33 30 25 19 15 12 14 12 4 356 355 357 354 349 350 353
149 147 145 148 150 149 148 147 146 148 152 152 152 153 154 155 155 154 152 152 151 149 145 146 147 145 143 142 140 138 137 137 137 133 125 122 120 115 110 107 103 99 97 94 88 80 70 60 55 52 49 45 40 37 34 31 31 33 34 34 33 33 35 38 42 44 45 45 42 39 37 33 30 25 21 23 21 14 7 4 4 0 355 355 352
152 152 151 153 153 152 151 150 150 152 154 154 154 155 155 155 157 157 156 154 153 151 148 147 149 148 148 149 147 144 142 141 141 138 132 131 128 120 115 111 108 104 103 101 92 80 68 58 52 50 47 43 37 34 33 32 31 33 33 33 33 32 30 32 36 40 44 45 45 44 41 37 35 33 29 28 27 25 20 13 8 4 360 357 350
156 156 154 153 153 152 152 153 154 156 157 157 156 156 156 156 158 159 158 155 155 154 152 150 151 152 153 154 153 152 149 146 145 143 140 138 134 129 125 118 113 111 109 106 98 82 68 59 53 49 46 41 35 33 34 33 32 33 32 32 33 32 30 30 32 35 38 41 42 42 41 39 37 35 33 31 30 30 27 22 17 12 5 360 356
156 156 154 152 153 155 156 157 159 160 160 159 158 157 157 157 158 158 156 155 156 156 156 156 155 157 161 161 161 161 157 151 149 150 149 145 139 137 138 130 121 117 112 107 99 86 71 60 54 49 44 39 34 34 35 34 34 34 32 31 32 31 30 33 34 35 37 39 40 40 40 40 38 36 35 33 32 31 30 27 24 20 13 5 3
155 157 156 156 157 158 159 161 162 163 162 160 158 158 158 158 158 156 154 154 155 155 157 158 157 159 163 165 166 167 165 160 156 157 159 152 141 140 143 137 129 123 116 108 100 89 75 62 55 48 43 37 30 31 35 35 34 35 34 34 32 30 31 34 36 37 39 41 42 42 41 40 38 37 35 34 32 31 30 29 27 25 22 14 8
157 158 157 157 158 159 160 161 163 163 162 160 158 157 158 158 157 155 153 153 152 152 154 156 156 156 159 162 164 165 167 167 164 165 167 159 145 142 142 138 138 135 126 116 104 92 77 63 54 45 40 34 27 26 29 30 31 33 34 35 33 32 33 35 37 38 39 41 42 40 38 36 35 34 34 33 33 32 32 31 30 30 29 26 20
159 158 157 157 158 159 160 161 163 162 161 159 157 156 156 156 156 155 154 152 150 149 151 153 153 152 154 157 160 162 165 167 170 172 172 164 152 147 145 139 138 138 134 124 106 88 74 61 51 42 35 29 22 21 21 22 25 27 27 27 28 28 31 33 36 37 38 39 39 37 34 31 30 30 30 30 31 32 33 33 32 32 33 32 29
159 158 158 158 159 160 160 162 164 162 160 159 157 155 155 156 155 155 154 152 150 149 150 153 154 153 153 155 157 161 164 167 172 176 174 169 160 152 151 144 137 140 145 136 110 85 72 62 50 40 32 25 19 14 11 13 19 20 19 18 18 21 26 29 31 33 34 34 33 30 28 27 26 26 27 28 28 29 30 32 32 32 34 36 34
158 158 160 161 160 161 161 164 165 163 162 161 158 156 156 156 155 155 156 155 153 151 152 155 157 157 157 157 158 161 165 168 173 176 175 174 167 158 157 154 148 151 154 143 122 87 70 62 49 33 23 20 19 15 7 5 9 13 15 14 15 18 23 26 27 29 30 29 27 24 23 22 22 22 23 23 24 24 25 27 28 28 31 34 36
158 160 162 162 163 163 163 164 165 165 165 164 161 160 160 159 157 158 158 158 157 156 157 160 161 162 162 162 162 164 167 170 174 174 173 174 170 165 166 166 166 167 165 153 132 97 70 54 37 21 10 8 16 18 14 7 4 5 7 10 14 17 20 22 24 26 26 25 22 20 19 18 17 17 17 17 18 19 19 20 22 23 25 27 30
160 162 163 163 164 165 165 165 165 165 166 165 163 162 163 163 161 160 162 162 161 162 163 165 166 167 167 167 168 170 171 173 175 175 173 172 170 170 175 180 184 183 179 172 154 113 73 46 25 14 8 2 3 10 15 15 12 9 6 8 12 14 16 18 20 21 23 21 19 17 15 13 12 13 13 14 15 15 15 15 17 19 20 22 24
163 165 165 165 165 167 169 169 167 166 166 167 166 164 165 165 164 164 166 167 166 167 170 173 175 175 175 174 175 176 178 181 182 179 176 174 172 173 180 191 197 196 194 194 192 181 98 41 22 16 18 18 10 5 10 15 17 16 13 10 10 11 12 14 16 17 18 16 15 14 12 11 11 11 11 13 15 14 14 14 14 15 17 20 22
165 166 166 166 166 168 170 170 170 168 167 168 168 168 168 168 167 167 170 172 171 170 174 178 183 184 184 184 183 183 185 187 186 183 181 179 177 178 182 191 198 200 202 205 208 217 238 288 338 7 22 28 27 21 16 15 18 18 16 13 10 9 9 11 13 14 13 11 11 11 10 10 11 11 11 13 14 14 14 14 14 14 16 19 20
164 165 166 166 167 167 167 168 170 170 169 168 167 168 170 172 171 171 172 175 175 173 173 178 185 189 192 195 196 194 189 185 183 183 183 183 184 183 184 190 197 200 203 204 205 217 247 269 290 327 6 17 20 20 19 17 15 14 15 14 10 6 6 6 7 8 8 8 7 7 7 7 8 9 10 10 11 12 13 14 15 15 15 15 15
162 164 166 167 167 168 167 167 169 170 171 171 169 169 171 175 179 180 180 181 183 183 181 182 187 193 198 200 199 196 190 181 178 181 183 186 189 188 188 193 199 201 202 204 209 225 250 272 286 300 328 347 357 0 4 9 9 7 9 12 11 9 6 2 360 359 360 2 2 0 1 3 4 5 6 6 7 8 9 11 13 15 15 14 12
164 164 167 168 168 169 169 169 169 170 170 171 172 173 174 177 182 188 192 194 196 196 195 194 195 198 200 198 193 188 181 176 176 179 182 187 190 192 196 202 204 203 205 209 221 239 253 270 290 303 308 316 327 333 338 345 351 355 358 2 7 11 9 4 360 355 352 354 356 355 354 355 357 359 0 1 2 4 6 8 8 9 11 12 11
168 167 167 168 168 169 170 170 171 171 171 173 176 177 179 181 183 188 194 201 205 207 207 204 202 199 194 191 188 182 176 173 176 179 182 187 193 198 203 209 209 209 211 216 226 238 247 262 294 313 311 310 311 313 321 327 330 337 345 351 357 3 6 5 3 359 352 350 351 352 352 351 351 354 356 357 358 359 2 4 5 5 6 6 7
172 172 172 171 170 171 173 173 174 175 176 178 180 181 183 186 188 187 189 193 199 206 207 204 202 200 193 186 183 180 177 176 179 181 182 188 199 205 208 212 215 219 222 226 233 243 248 259 287 309 314 315 311 308 313 321 322 324 333 343 350 355 358 359 360 0 358 353 351 350 350 349 349 351 352 354 355 355 357 359 1 2 2 1 1
175 175 176 176 176 176 177 178 178 179 180 181 183 185 187 189 192 193 194 194 195 198 199 197 197 199 195 187 182 180 181 182 183 183 183 188 198 204 205 209 215 221 226 232 239 248 254 264 281 299 309 316 316 311 312 316 320 322 326 332 339 343 344 345 347 349 350 350 349 349 348 347 347 347 347 350 351 351 352 354 355 357 358 357 357
174 174 176 178 180 180 181 182 182 183 184 184 186 188 190 192 195 198 201 202 199 194 192 193 196 198 195 188 184 183 186 189 188 187 188 190 195 201 206 212 219 224 228 235 242 249 256 265 279 292 299 307 314 315 313 313 317 320 321 322 324 326 328 330 332 334 337 339 340 342 342 343 343 343 343 345 348 348 348 349 350 351 353 352 352
176 176 176 179 181 182 182 183 184 185 185 184 185 187 190 194 198 199 199 197 195 192 191 192 195 196 192 188 186 187 191 194 197 199 199 197 198 205 213 223 230 234 236 241 247 253 260 268 277 287 294 300 306 310 311 312 314 315 316 317 318 318 320 323 324 325 328 330 332 334 334 335 337 338 337 337 340 342 344 345 346 347 348 348 349
180 180 180 181 182 181 181 181 181 182 182 182 184 186 189 192 194 193 192 191 191 193 193 194 196 196 193 189 188 192 197 203 208 210 209 206 207 212 220 230 238 242 246 250 252 257 265 271 275 282 289 294 299 303 306 310 312 313 314 316 316 318 320 322 324 326 327 328 330 331 331 330 332 332 330 329 331 333 335 337 339 340 342 344 345
180 182 183 184 183 182 182 181 180 180 180 181 182 185 188 188 188 188 189 191 194 196 196 196 198 198 194 191 192 196 203 210 216 216 215 217 220 224 229 238 243 247 251 254 255 261 269 273 276 279 283 288 294 298 300 303 306 308 310 311 313 316 319 322 325 329 331 332 334 334 333 333 333 331 329 327 327 328 327 327 330 331 332 335 338
180 181 182 183 183 183 183 182 181 181 181 182 183 186 187 188 189 191 194 197 200 201 200 199 200 199 196 195 197 202 208 213 217 219 220 225 231 237 241 245 248 250 255 258 259 263 271 277 280 281 280 282 287 291 294 297 299 300 302 303 305 310 314 316 320 323 326 329 332 332 331 332 333 332 331 330 329 328 325 323 324 325 325 326 329
181 180 181 182 183 183 183 183 184 185 185 186 187 188 189 191 194 197 199 202 203 202 201 202 203 202 200 201 204 208 212 216 220 223 228 234 241 247 249 250 252 253 257 262 266 269 273 279 283 283 282 282 284 285 287 290 292 294 296 298 299 302 307 309 312 316 319 321 323 322 321 322 324 324 325 326 325 326 325 323 323 323 322 322 323
181 180 180 181 183 183 183 184 186 187 188 190 192 193 194 196 197 199 201 203 203 202 202 205 207 205 203 204 207 210 215 220 224 229 234 240 247 250 250 250 251 253 257 264 270 274 277 279 281 283 284 284 284 285 285 287 289 290 293 296 298 300 303 306 309 312 314 314 314 313 313 314 315 316 316 317 317 318 318 319 319 320 319 319 320
184 182 181 181 183 185 186 188 189 190 191 194 195 196 197 198 199 201 203 202 202 202 203 204 203 202 202 205 208 212 217 224 230 235 241 246 251 252 249 247 249 252 257 264 270 275 280 281 281 282 284 284 286 288 287 288 290 291 292 294 296 297 300 302 305 307 308 309 310 311 311 312 313 313 313 314 314 313 314 314 314 314 314 315 315
183 180 181 182 185 188 190 192 194 195 196 197 198 198 200 201 201 202 202 201 201 201 201 200 200 200 204 209 214 220 227 232 237 243 248 252 256 257 252 249 250 253 257 264 271 277 282 283 283 284 286 288 290 291 290 289 290 291 291 294 295 297 300 303 304 306 307 308 308 309 310 310 311 311 313 315 315 315 313 313 312 313 312 312 312
181 180 181 182 185 188 191 194 197 198 199 199 199 200 202 203 203 203 202 200 199 198 199 201 204 209 214 220 225 232 237 240 242 247 252 255 258 259 255 253 256 259 263 268 275 279 282 284 284 286 289 291 293 293 292 290 290 290 293 296 298 300 303 305 307 308 310 310 310 310 310 311 312 314 316 319 320 319 317 315 314 314 313 312 312
184 184 182 183 187 190 192 195 199 201 202 202 201 201 201 202 202 201 199 197 197 199 202 209 217 224 230 234 237 239 241 242 243 246 251 255 258 262 263 264 268 271 274 277 280 280 281 282 284 286 289 291 291 290 290 290 290 292 295 298 301 303 306 308 311 314 317 318 319 319 320 319 320 322 324 326 327 327 325 323 323 321 319 317 315
191 188 186 187 191 194 194 195 198 200 201 200 199 198 198 198 198 197 197 197 200 206 213 222 230 236 240 243 242 241 241 242 243 248 256 263 266 269 273 276 279 280 278 278 277 277 278 281 283 284 285 284 283 283 286 288 291 294 296 298 302 305 309 313 316 320 325 328 329 330 331 330 329 330 330 330 330 329 328 328 328 327 326 324 321
191 190 189 191 193 194 194 195 196 196 196 196 196 196 196 195 195 197 200 204 210 218 226 233 237 240 241 241 242 245 249 253 256 262 268 272 275 279 281 281 279 277 276 275 274 276 279 281 282 280 279 278 279 282 285 289 292 295 298 302 307 311 314 319 323 327 331 334 334 335 334 332 331 329 328 327 327 327 326 326 326 326 326 325 322
190 190 191 191 193 195 194 193 193 193 193 194 195 194 195 197 201 204 209 216 224 230 235 238 238 238 238 240 243 249 254 259 265 270 273 277 282 285 282 276 272 271 272 272 272 272 272 272 271 271 272 275 279 283 286 290 295 299 303 309 314 319 323 327 329 331 333 333 333 333 332 330 328 327 326 325 324 323 323 324 324 324 324 322 321
192 192 192 192 193 194 193 191 191 193 195 195 196 196 199 205 211 216 222 228 232 234 236 236 235 235 237 242 249 255 260 267 273 277 280 284 284 278 268 259 255 255 254 255 257 260 260 261 264 268 271 276 281 286 290 294 300 306 312 318 322 326 329 331 331 331 331 331 330 330 330 329 329 329 329 328 328 327 326 326 325 324 324 324 324
192 192 193 193 192 192 191 190 192 195 197 199 202 206 210 216 221 226 230 231 229 228 229 230 231 234 239 247 256 264 271 277 281 282 283 280 268 246 229 226 231 237 241 244 247 249 251 255 261 268 275 281 286 291 296 301 309 316 322 326 327 327 328 329 329 330 330 331 331 332 333 333 334 335 335 335 336 335 334 333 333 332 332 331 330